| time (UTC) | temp C | wind direction | speed KPH | gust KPH | rain 1hr cm | rain 24hr cm | rain mn cm | humidity % | barometer mb |
| 20260505025114 | 17 | 230 | 8.0 | 16.1 | 0.00 | 0.13 | 0.05 | 53 | 1023.0 |
| 20260505024214 | 17 | 251 | 6.4 | 14.5 | 0.00 | 0.13 | 0.05 | 53 | 1023.1 |
| 20260505023313 | 16 | 269 | 8.0 | 14.5 | 0.00 | 0.13 | 0.05 | 54 | 1023.2 |
| 20260505022414 | 16 | 258 | 6.4 | 14.5 | 0.00 | 0.13 | 0.05 | 55 | 1023.2 |
| 20260505021513 | 16 | 263 | 6.4 | 12.9 | 0.00 | 0.13 | 0.05 | 55 | 1023.2 |
| 20260505020614 | 16 | 282 | 1.6 | 6.4 | 0.00 | 0.13 | 0.05 | 54 | 1023.3 |
| 20260505013914 | 15 | 286 | 3.2 | 9.7 | 0.00 | 0.13 | 0.05 | 57 | 1023.4 |
| 20260505013013 | 15 | 258 | 6.4 | 12.9 | 0.00 | 0.13 | 0.05 | 57 | 1023.4 |
| 20260505012114 | 16 | 300 | 3.2 | 11.3 | 0.00 | 0.13 | 0.05 | 55 | 1023.3 |
| 20260505011213 | 15 | 261 | 1.6 | 4.8 | 0.00 | 0.13 | 0.05 | 59 | 1023.2 |
| 20260505005413 | 14 | 288 | 3.2 | 4.8 | 0.00 | 0.13 | 0.05 | 59 | 1023.1 |
| 20260505004513 | 14 | 289 | 3.2 | 4.8 | 0.00 | 0.13 | 0.05 | 58 | 1023.1 |
| 20260505003614 | 15 | 255 | 3.2 | 11.3 | 0.00 | 0.13 | 0.05 | 59 | 1022.9 |
| 20260505002713 | 16 | 291 | 3.2 | 9.7 | 0.00 | 0.13 | 0.05 | 59 | 1022.9 |
| 20260505001813 | 15 | 296 | 1.6 | 4.8 | 0.00 | 0.13 | 0.05 | 62 | 1022.9 |
| 20260505000913 | 15 | 265 | 1.6 | 6.4 | 0.00 | 0.13 | 0.05 | 65 | 1022.8 |
| 20260505000013 | 15 | 175 | 1.6 | 6.4 | 0.00 | 0.13 | 0.05 | 67 | 1022.8 |
| 20260504235113 | 14 | 160 | 1.6 | 6.4 | 0.00 | 0.13 | 0.05 | 67 | 1022.8 |
| 20260504234213 | 15 | 160 | 0.0 | 6.4 | 0.00 | 0.13 | 0.05 | 68 | 1022.7 |
| 20260504232413 | 14 | 160 | 1.6 | 6.4 | 0.00 | 0.13 | 0.05 | 68 | 1022.6 |
| 20260504231513 | 13 | 160 | 1.6 | 6.4 | 0.00 | 0.13 | 0.05 | 68 | 1022.6 |
| 20260504230613 | 13 | 160 | 3.2 | 6.4 | 0.00 | 0.13 | 0.05 | 68 | 1022.5 |
| 20260504225713 | 13 | 159 | 1.6 | 8.0 | 0.00 | 0.13 | 0.05 | 68 | 1022.4 |
| 20260504224813 | 13 | 155 | 1.6 | 6.4 | 0.00 | 0.13 | 0.05 | 68 | 1022.3 |
| 20260504223913 | 13 | 155 | 3.2 | 4.8 | 0.00 | 0.13 | 0.05 | 68 | 1022.3 |
| 20260504223012 | 12 | 142 | 3.2 | 4.8 | 0.00 | 0.13 | 0.05 | 67 | 1022.2 |
| 20260504222113 | 12 | 137 | 1.6 | 4.8 | 0.00 | 0.13 | 0.05 | 67 | 1022.1 |
| 20260504221213 | 12 | 141 | 1.6 | 6.4 | 0.00 | 0.13 | 0.05 | 67 | 1022.0 |
| 20260504220313 | 12 | 143 | 1.6 | 4.8 | 0.00 | 0.13 | 0.05 | 67 | 1021.9 |
| 20260504215413 | 12 | 242 | 1.6 | 4.8 | 0.00 | 0.13 | 0.05 | 67 | 1021.8 |
| 20260504213613 | 12 | 151 | 0.0 | 1.6 | 0.00 | 0.13 | 0.05 | 67 | 1021.7 |
| 20260504212713 | 12 | 152 | 1.6 | 4.8 | 0.00 | 0.13 | 0.05 | 67 | 1021.6 |
| 20260504211813 | 12 | 151 | 1.6 | 3.2 | 0.00 | 0.13 | 0.05 | 67 | 1021.5 |
| 20260504210913 | 12 | 151 | 1.6 | 4.8 | 0.00 | 0.13 | 0.05 | 67 | 1021.4 |
| 20260504210012 | 12 | 152 | 1.6 | 4.8 | 0.00 | 0.13 | 0.05 | 67 | 1021.3 |
| 20260504205113 | 12 | 151 | 1.6 | 4.8 | 0.00 | 0.13 | 0.05 | 66 | 1021.1 |
| 20260504204212 | 12 | 151 | 1.6 | 4.8 | 0.00 | 0.13 | 0.05 | 67 | 1021.0 |
| 20260504202413 | 12 | 151 | 1.6 | 4.8 | 0.00 | 0.13 | 0.05 | 66 | 1021.0 |
| 20260504201513 | 12 | 151 | 1.6 | 1.6 | 0.00 | 0.13 | 0.05 | 66 | 1020.9 |
| 20260504200613 | 12 | 151 | 0.0 | 1.6 | 0.03 | 0.13 | 0.05 | 66 | 1020.8 |
| 20260504195712 | 11 | 152 | 1.6 | 8.0 | 0.03 | 0.13 | 0.05 | 66 | 1020.8 |
| 20260504194813 | 11 | 146 | 3.2 | 8.0 | 0.03 | 0.13 | 0.05 | 66 | 1020.6 |
| 20260504193012 | 11 | 116 | 1.6 | 4.8 | 0.03 | 0.13 | 0.05 | 66 | 1020.5 |
| 20260504192113 | 11 | 116 | 3.2 | 4.8 | 0.03 | 0.13 | 0.05 | 66 | 1020.4 |
| 20260504191213 | 11 | 117 | 1.6 | 3.2 | 0.03 | 0.13 | 0.05 | 66 | 1020.3 |
| 20260504190313 | 12 | 117 | 1.6 | 1.6 | 0.00 | 0.10 | 0.03 | 66 | 1020.3 |
| 20260504185413 | 12 | 117 | 1.6 | 3.2 | 0.00 | 0.10 | 0.03 | 66 | 1020.2 |
| 20260504184513 | 12 | 117 | 1.6 | 3.2 | 0.00 | 0.10 | 0.03 | 66 | 1020.2 |
| 20260504183613 | 12 | 116 | 0.0 | 3.2 | 0.00 | 0.10 | 0.03 | 66 | 1020.2 |
| 20260504182712 | 12 | 117 | 0.0 | 3.2 | 0.00 | 0.10 | 0.03 | 66 | 1020.1 |
| 20260504181813 | 12 | 116 | 0.0 | 3.2 | 0.00 | 0.10 | 0.03 | 66 | 1020.0 |
| 20260504180913 | 12 | 116 | 0.0 | 3.2 | 0.00 | 0.10 | 0.03 | 66 | 1020.0 |
| 20260504180012 | 12 | 117 | 0.0 | 3.2 | 0.00 | 0.10 | 0.03 | 66 | 1019.9 |
| 20260504175112 | 12 | 116 | 0.0 | 3.2 | 0.00 | 0.10 | 0.03 | 66 | 1020.0 |
| 20260504172413 | 12 | 83 | 3.2 | 4.8 | 0.03 | 0.10 | 0.03 | 66 | 1020.1 |
| 20260504171512 | 12 | 104 | 3.2 | 4.8 | 0.03 | 0.10 | 0.03 | 66 | 1020.1 |
| 20260504160312 | 12 | 139 | 1.6 | 6.4 | 0.00 | 0.10 | 0.00 | 66 | 1020.1 |
| 20260504150912 | 12 | 0 | 0.0 | 0.0 | 0.00 | 0.18 | 0.00 | 66 | 1020.1 |
| 20260504140611 | 12 | 0 | 0.0 | 0.0 | 0.00 | 0.23 | 0.23 | 66 | 1019.7 |
| 20260504130312 | 13 | 0 | 0.0 | 0.0 | 0.00 | 0.23 | 0.23 | 66 | 1019.5 |
| 20260504110612 | 14 | 187 | 4.8 | 14.5 | 0.08 | 0.23 | 0.23 | 65 | 1018.7 |
| 20260504100311 | 15 | 186 | 0.0 | 3.2 | 0.00 | 0.43 | 0.15 | 64 | 1017.9 |
| 20260504081510 | 16 | 258 | 12.9 | 24.1 | 0.00 | 0.43 | 0.15 | 54 | 1016.2 |
| 20260504070311 | 17 | 251 | 16.1 | 30.6 | 0.00 | 0.43 | 0.15 | 52 | 1015.6 |
| 20260504050611 | 19 | 236 | 14.5 | 27.4 | 0.00 | 0.48 | 0.15 | 47 | 1014.5 |
| 20260504045710 | 19 | 248 | 16.1 | 27.4 | 0.00 | 0.48 | 0.15 | 48 | 1014.3 |
| 20260504043010 | 19 | 253 | 19.3 | 32.2 | 0.00 | 0.48 | 0.15 | 47 | 1014.2 |
| 20260504040311 | 19 | 251 | 20.9 | 33.8 | 0.00 | 0.48 | 0.15 | 47 | 1014.1 |
| 20260504035411 | 19 | 244 | 19.3 | 30.6 | 0.00 | 0.48 | 0.15 | 49 | 1014.2 |
| 20260504034510 | 20 | 247 | 19.3 | 35.4 | 0.00 | 0.48 | 0.15 | 46 | 1014.2 |
| 20260504033610 | 20 | 242 | 19.3 | 35.4 | 0.00 | 0.48 | 0.15 | 45 | 1014.1 |
| 20260504032710 | 20 | 239 | 17.7 | 33.8 | 0.00 | 0.48 | 0.15 | 48 | 1014.1 |
| 20260504031811 | 19 | 242 | 17.7 | 32.2 | 0.00 | 0.48 | 0.15 | 46 | 1014.2 |
| 20260504030910 | 20 | 247 | 19.3 | 32.2 | 0.00 | 0.48 | 0.15 | 47 | 1014.2 |
| 20260504030010 | 21 | 248 | 16.1 | 33.8 | 0.00 | 0.48 | 0.15 | 48 | 1014.3 |